K5WXL Weather Reports


time (UTC)temp
C
wind
direction
speed
KPH
gust
KPH
rain 1hr
cm
rain 24hr
cm
rain mn
cm
humidity
%
barometer
mb
20260507033015 11 46 6.4 8.0 0.00 0.00 0.00 74 1017.9
20260507031520 11 42 4.8 9.7 0.00 0.00 0.00 73 1017.8
20260507030024 12 50 6.4 11.3 0.00 0.00 0.00 72 1017.7
20260507024527 12 44 9.7 11.3 0.00 0.00 0.00 71 1017.5
20260507023026 12 41 8.0 11.3 0.00 0.00 0.00 70 1017.4
20260507021515 12 47 9.7 11.3 0.00 0.00 0.00 69 1017.1
20260507020034 13 45 8.0 9.7 0.00 0.00 0.00 67 1016.6
20260507014525 13 44 8.0 9.7 0.00 0.00 0.00 66 1016.6
20260507013027 14 42 8.0 11.3 0.00 0.00 0.00 63 1016.4
20260507011540 15 40 9.7 12.9 0.00 0.00 0.00 59 1016.2
20260507010018 16 51 9.7 16.1 0.00 0.00 0.00 56 1016.0
20260507004523 17 35 11.3 20.9 0.00 0.00 0.00 53 1015.8
20260507003025 17 36 17.7 24.1 0.00 0.00 0.00 51 1015.8
20260507001529 18 34 16.1 25.7 0.00 0.00 0.00 49 1015.6
20260507000016 18 357 17.7 27.4 0.00 0.00 0.00 49 1015.6
20260506234516 18 12 16.1 29.0 0.00 0.00 0.00 48 1015.4
20260506233005 18 61 17.7 30.6 0.00 0.00 0.00 49 1015.2
20260506231509 18 19 19.3 30.6 0.00 0.00 0.00 48 1015.0
20260506230014 18 39 17.7 30.6 0.00 0.00 0.00 47 1014.8
20260506224518 18 32 14.5 27.4 0.00 0.00 0.00 47 1014.7
20260506223027 19 69 17.7 25.7 0.00 0.00 0.00 48 1014.8
20260506221505 18 25 20.9 30.6 0.00 0.00 0.00 49 1014.7
20260506220012 18 17 12.9 29.0 0.00 0.00 0.00 48 1014.8
20260506214515 18 55 16.1 29.0 0.00 0.00 0.00 48 1014.9
20260506213018 18 49 20.9 32.2 0.00 0.00 0.00 49 1014.9
20260506211522 18 53 20.9 32.2 0.00 0.00 0.00 50 1015.1
20260506210009 18 58 16.1 33.8 0.00 0.00 0.00 51 1015.2
20260506204513 18 31 19.3 29.0 0.00 0.00 0.00 51 1015.3
20260506203018 17 15 14.5 32.2 0.00 0.00 0.00 52 1015.4
20260506201522 17 36 16.1 27.4 0.00 0.00 0.00 54 1015.5
20260506200023 17 68 19.3 32.2 0.00 0.00 0.00 52 1015.5
20260506194511 17 19 16.1 32.2 0.00 0.00 0.00 55 1015.4
20260506193022 16 52 22.5 32.2 0.00 0.00 0.00 56 1015.4
20260506191520 16 25 20.9 33.8 0.00 0.00 0.00 56 1015.6
20260506190029 16 32 22.5 38.6 0.00 0.00 0.00 57 1015.7
20260506184534 15 33 22.5 35.4 0.00 0.00 0.00 58 1015.9
20260506183012 15 42 19.3 35.4 0.00 0.00 0.00 61 1016.0
20260506181523 14 23 22.5 35.4 0.00 0.00 0.00 62 1016.0
20260506180025 13 60 24.1 37.0 0.00 0.00 0.00 62 1016.2
20260506174530 13 56 24.1 32.2 0.00 0.00 0.00 65 1016.6
20260506173024 12 29 17.7 29.0 0.00 0.00 0.00 64 1017.0
20260506171515 13 85 19.3 29.0 0.00 0.00 0.00 65 1017.2
20260506170025 12 20 19.3 29.0 0.00 0.00 0.00 66 1017.5
20260506164541 12 68 16.1 30.6 0.00 0.00 0.00 64 1017.6
20260506163024 12 61 20.9 30.6 0.00 0.00 0.00 64 1017.6
20260506161524 12 53 19.3 25.7 0.00 0.00 0.00 67 1017.6
20260506160017 11 46 20.9 35.4 0.00 0.00 0.00 66 1017.5
20260506154521 11 60 22.5 33.8 0.00 0.00 0.00 66 1017.5
20260506153026 11 51 24.1 38.6 0.00 0.00 0.00 65 1017.4
20260506151508 11 32 24.1 38.6 0.00 0.00 0.00 66 1017.4
20260506150016 11 51 24.1 33.8 0.00 0.00 0.00 69 1016.9
20260506144523 10 50 22.5 37.0 0.00 0.00 0.00 70 1016.5
20260506143024 10 56 24.1 38.6 0.00 0.00 0.00 70 1016.3
20260506141530 10 53 22.5 40.2 0.00 0.00 0.00 70 1016.1
20260506140011 10 26 25.7 40.2 0.00 0.00 0.00 71 1015.9
20260506134516 10 45 27.4 38.6 0.00 0.00 0.00 72 1015.6
20260506133019 10 20 24.1 38.6 0.00 0.00 0.00 73 1015.7
20260506131524 10 17 25.7 40.2 0.00 0.00 0.00 74 1015.5
20260506130024 9 19 22.5 35.4 0.00 0.00 0.00 74 1015.5
20260506124511 9 22 20.9 35.4 0.00 0.00 0.00 73 1015.3
20260506123020 9 44 17.7 29.0 0.00 0.00 0.00 73 1015.2
20260506121524 9 58 24.1 35.4 0.00 0.00 0.00 72 1014.9
20260506120048 9 20 17.7 35.4 0.00 0.00 0.00 72 1015.1
20260506114526 9 28 20.9 29.0 0.00 0.00 0.00 72 1014.8
20260506113016 9 46 24.1 32.2 0.00 0.00 0.00 71 1014.5
20260506111519 9 32 16.1 32.2 0.00 0.00 0.00 71 1014.2
20260506110025 9 9 25.7 33.8 0.00 0.00 0.00 70 1014.4
20260506104536 9 27 20.9 35.4 0.00 0.00 0.00 69 1014.4
20260506103038 10 345 19.3 27.4 0.00 0.00 0.00 69 1014.7
20260506101516 10 28 25.7 38.6 0.00 0.00 0.00 68 1014.1
20260506100019 10 6 16.1 29.0 0.00 0.00 0.00 69 1014.1
20260506094525 10 34 24.1 33.8 0.00 0.00 0.00 68 1013.8
20260506093028 10 33 16.1 24.1 0.00 0.00 0.00 70 1014.3
20260506091528 10 32 19.3 25.7 0.00 0.00 0.00 70 1014.0
20260506090019 10 30 14.5 25.7 0.00 0.00 0.00 72 1014.0
20260506084549 10 33 12.9 29.0 0.00 0.00 0.00 73 1013.8
20260506083024 10 39 12.9 22.5 0.00 0.00 0.00 74 1013.6
20260506081536 9 25 17.7 25.7 0.00 0.00 0.00 75 1013.3
20260506073023 9 23 16.1 27.4 0.00 0.00 0.00 79 1012.4
20260506071527 9 56 17.7 30.6 0.00 0.00 0.00 80 1012.1
20260506061508 10 23 12.9 30.6 0.00 0.00 0.00 81 1012.6
20260506044518 10 32 16.1 25.7 0.00 0.00 0.00 79 1011.9
20260506043014 10 61 17.7 30.6 0.00 0.00 0.00 79 1011.9
20260506041520 10 22 17.7 30.6 0.00 0.00 0.00 79 1011.5
20260506040032 10 27 20.9 29.0 0.00 0.00 0.00 79 1011.8
20260506034508 10 34 20.9 33.8 0.00 0.00 0.00 79 1012.0